User: anonymous   Login
Location: Oshawa
(43.9000°N, 78.8670°W)
Time: 15:20:35
(UTC-04:00)
Language:

Cosmos 1707 Rocket - Orbit

View from above orbital plane
View from above orbital plane
View from above satellite
View from above satellite

Ground track
Ground track

The orbit data is extracted from the following two-line orbital elements,

1 16327U 85113B   18170.90169372  .00000081  00000-0  69205-5 0  9997
2 16327  82.5350 108.6383 0018136 211.9418 208.7128 14.83404602756398
Epoch (UTC): 19 June 2018 21:38:26
Eccentricity: 0.0018136
inclination: 82.5350°
perigee height: 606 km
apogee height: 631 km
right ascension of ascending node: 108.6383°
argument of perigee: 211.9418°
revolutions per day: 14.83404602
mean anomaly at epoch: 208.7128°
orbit number at epoch: 75639

The dashed part of the orbit path shows where the satellite is in the earth's shadow,  

DLR